Gogerbank, United Kingdom

12:37 PM GMT on January 18, 2017 (GMT +0000)
Edinburgh Airport

Weather History for EGPH - October, 2010

Change the Weather History Date:

Friday, October 29, 2010

  Actual Average Record
Temperature  
Mean Temperature 53 °F -  
Max Temperature 60 °F 48 °F 60 °F (2005)
Min Temperature 46 °F 36 °F 23 °F (1997)
Degree Days  
Heating Degree Days 12    
Growing Degree Days 3 (Base 50)    
Moisture  
Dew Point 50 °F    
Average Humidity 81    
Maximum Humidity 94    
Minimum Humidity 72    
Precipitation  
Precipitation 0.00 in 0.08 in - ()
Sea Level Pressure  
Sea Level Pressure 29.09 in    
Wind  
Wind Speed 16 mph ()    
Max Wind Speed 28 mph    
Max Gust Speed 40 mph    
Visibility 6.1 miles    
Events Rain    
Averages and records for this station are not official NWS values.
T = Trace of Precipitation, MM = Missing Value Source: Averaged Metar Reports

Daily Weather History Graph

Daily Weather History Graph

Search for Another Location

Airport or City:

Trip Planner

Search our weather history database for the weather conditions in past years. The results will help you decide how hot, cold, wet, or windy it might be!

Date:

Astronomy

Oct. 29, 2010 Rise Set
Actual Time 8:13 AM BST 5:39 PM BST
Civil Twilight 7:34 AM BST 6:18 PM BST
Nautical Twilight 6:50 AM BST 7:02 PM BST
Astronomical Twilight 6:07 AM BST 7:45 PM BST
Moon 10:43 PM BST (10/29) 2:29 PM BST (10/29)
Length of Visible Light 10h 44m
Length of Day
9h 26m
Waning Gibbous, 62% of the Moon is Illuminated
Oct 29
Waning Gibbous
Oct 30
Last Quarter
Nov 6
New
Nov 13
First Quarter
Nov 21
Full

Hourly Weather History & Observations

Time (BST) Temp. Windchill Dew Point Humidity Pressure Visibility Wind Dir Wind Speed Gust Speed Precip Events Conditions
12:20 AM 57.2 °F - 50.0 °F 77% 29.36 in 6.2 mi SSW 16.1 mph - N/A   Overcast
12:50 AM 57.2 °F - 50.0 °F 77% 29.33 in 6.2 mi SSW 18.4 mph 32.2 mph N/A   Mostly Cloudy
1:20 AM 57.2 °F - 51.8 °F 82% 29.33 in 6.2 mi SSW 20.7 mph 32.2 mph N/A   Mostly Cloudy
1:50 AM 57.2 °F - 51.8 °F 82% 29.30 in 6.2 mi SSW 19.6 mph 34.5 mph N/A   Overcast
2:20 AM 59.0 °F - 51.8 °F 77% 29.30 in 6.2 mi SSW 19.6 mph 32.2 mph N/A   Overcast
2:50 AM 59.0 °F - 51.8 °F 77% 29.30 in 6.2 mi SSW 20.7 mph 32.2 mph N/A   Overcast
3:20 AM 59.0 °F - 51.8 °F 77% 29.27 in 6.2 mi SSW 19.6 mph - N/A   Mostly Cloudy
3:50 AM 59.0 °F - 51.8 °F 77% 29.27 in 6.2 mi SSW 21.9 mph 36.8 mph N/A   Overcast
4:50 AM 59.0 °F - 51.8 °F 77% 29.24 in 6.2 mi SSW 23.0 mph 36.8 mph N/A   Mostly Cloudy
5:20 AM 59.0 °F - 51.8 °F 77% 29.24 in 6.2 mi SSW 19.6 mph - N/A   Overcast
5:50 AM 59.0 °F - 53.6 °F 82% 29.21 in 6.2 mi SSW 19.6 mph - N/A   Overcast
6:20 AM 59.0 °F - 51.8 °F 77% 29.21 in 6.2 mi SSW 21.9 mph 34.5 mph N/A   Overcast
6:50 AM 59.0 °F - 53.6 °F 82% 29.21 in 6.2 mi SSW 20.7 mph - N/A   Overcast
7:20 AM 59.0 °F - 51.8 °F 77% 29.21 in 6.2 mi SSW 21.9 mph 33.4 mph N/A   Overcast
7:50 AM 59.0 °F - 53.6 °F 82% 29.21 in 6.2 mi SW 18.4 mph - N/A   Overcast
8:20 AM 57.2 °F - 53.6 °F 88% 29.21 in 6.2 mi SW 10.4 mph - N/A   Overcast
8:50 AM 57.2 °F - 53.6 °F 88% 29.21 in 6.2 mi SW 16.1 mph - N/A   Overcast
9:20 AM 53.6 °F - 51.8 °F 94% 29.21 in 6.2 mi WSW 11.5 mph - N/A Rain Light Rain
9:50 AM 53.6 °F - 51.8 °F 94% 29.21 in 6.2 mi WSW 8.1 mph - N/A Rain Light Rain
10:20 AM 55.4 °F - 53.6 °F 94% 29.21 in 3.1 mi SW 8.1 mph - N/A Rain Light Rain
10:50 AM 55.4 °F - 53.6 °F 94% 29.18 in 6.2 mi SSW 8.1 mph - N/A Rain Light Rain
11:20 AM 57.2 °F - 53.6 °F 88% 29.18 in 6.2 mi SW 9.2 mph - N/A   Light Drizzle
11:50 AM 57.2 °F - 53.6 °F 88% 29.15 in 6.2 mi SW 10.4 mph - N/A   Light Drizzle
12:20 PM 57.2 °F - 53.6 °F 88% 29.12 in 6.2 mi SSW 9.2 mph - N/A   Light Drizzle
12:50 PM 59.0 °F - 53.6 °F 82% 29.12 in 6.2 mi SSW 15.0 mph - N/A   Light Drizzle
2:20 PM 60.8 °F - 51.8 °F 72% 29.03 in 6.2 mi South 13.8 mph - N/A   Mostly Cloudy
2:50 PM 60.8 °F - 51.8 °F 72% 29.03 in 6.2 mi South 10.4 mph - N/A   Mostly Cloudy
3:20 PM 59.0 °F - 51.8 °F 77% 29.00 in 6.2 mi SE 11.5 mph - N/A   Mostly Cloudy
3:50 PM 59.0 °F - 51.8 °F 77% 28.97 in 6.2 mi SE 11.5 mph - N/A   Mostly Cloudy
4:20 PM 59.0 °F - 50.0 °F 72% 28.94 in 6.2 mi SE 10.4 mph - N/A   Mostly Cloudy
4:50 PM 59.0 °F - 50.0 °F 72% 28.91 in 6.2 mi SSE 11.5 mph 26.5 mph N/A   Mostly Cloudy
5:20 PM 57.2 °F - 50.0 °F 77% 28.88 in 6.2 mi SSE 11.5 mph - N/A   Mostly Cloudy
5:50 PM 57.2 °F - 48.2 °F 72% 28.85 in 6.2 mi SSE 12.7 mph - N/A   Mostly Cloudy
6:20 PM 57.2 °F - 48.2 °F 72% 28.85 in 6.2 mi South 13.8 mph - N/A   Scattered Clouds
6:50 PM 57.2 °F - 48.2 °F 72% 28.80 in 6.2 mi South 17.3 mph - N/A   Scattered Clouds
7:20 PM 57.2 °F - 48.2 °F 72% 28.77 in 6.2 mi South 18.4 mph - N/A   Mostly Cloudy
7:50 PM 57.2 °F - 48.2 °F 72% 28.77 in 6.2 mi South 25.3 mph 39.1 mph N/A   Scattered Clouds
8:20 PM 48.2 °F - 46.4 °F 93% 28.82 in 6.2 mi WSW 27.6 mph 40.3 mph N/A   Light Drizzle
8:50 PM 48.2 °F - 42.8 °F 82% 28.88 in 6.2 mi WSW 27.6 mph 39.1 mph N/A   Mostly Cloudy
9:20 PM 46.4 °F 37.9 °F 42.8 °F 87% 28.91 in 6.2 mi WSW 25.3 mph - N/A   Partly Cloudy
9:50 PM 46.4 °F 37.9 °F 42.8 °F 87% 28.94 in 6.2 mi WSW 25.3 mph - N/A   Scattered Clouds
10:20 PM 48.2 °F - 42.8 °F 82% 28.97 in 6.2 mi WSW 27.6 mph - N/A   Partly Cloudy
10:50 PM 46.4 °F 39.5 °F 44.6 °F 93% 28.97 in 6.2 mi WSW 17.3 mph - N/A Rain Light Rain Showers
11:20 PM 48.2 °F - 44.6 °F 87% 29.00 in 6.2 mi SW 19.6 mph - N/A   Mostly Cloudy
11:50 PM 48.2 °F - 44.6 °F 87% 29.03 in 6.2 mi West 8.1 mph - N/A Rain Light Rain Showers